RH
20 21 24 21 19 18 18 18 19 20 21 22 22 24 22 19 15 9 9 12 13 14 13 13 11 22 22 16 15 16 20 23 18 33 47 61 66 68 54 38 61 59 68 88 100
34 22 24 23 20 19 18 18 20 21 22 24 24 25 23 18 11 21 19 17 11 11 12 12 10 20 23 17 15 15 21 18 14 36 52 59 57 58 54 56 67 96 93 95 90
46 33 22 24 21 20 19 19 21 21 24 26 25 27 23 17 17 24 18 19 18 11 14 12 13 18 20 18 16 14 17 14 14 25 40 51 43 44 48 58 60 99 100 99 95
71 48 30 24 23 20 20 20 21 24 27 26 26 27 22 16 33 22 22 19 18 12 17 12 16 23 20 18 12 12 12 12 12 36 45 49 39 41 38 37 66 69 71 79 92
86 69 43 26 24 21 20 20 23 26 29 26 27 26 21 22 10 18 23 20 16 15 12 17 21 22 21 15 14 16 15 12 18 39 39 39 39 42 45 47 64 52 66 70 86
92 86 60 34 26 22 20 22 25 30 30 30 28 26 24 59 15 20 28 25 19 15 15 16 18 20 20 16 20 20 19 16 34 39 34 36 36 35 46 58 63 52 67 65 86
90 92 78 46 29 23 21 24 28 32 31 33 29 26 26 10 11 21 28 28 23 21 18 19 19 21 19 21 18 21 14 15 31 36 43 32 41 41 44 50 64 68 57 71 87
79 89 89 61 32 26 22 25 29 33 32 34 28 27 23 8 17 16 25 27 27 26 22 21 22 22 20 19 22 26 16 21 19 30 35 30 36 35 36 41 42 46 57 71 77
76 91 96 73 39 28 23 27 31 32 34 32 29 47 38 24 11 18 25 22 22 25 25 23 22 22 22 29 35 29 21 24 21 23 31 26 30 32 33 45 68 62 66 70 76
81 77 97 83 52 29 24 30 32 36 45 36 37 48 21 16 24 13 20 18 21 22 25 23 24 32 36 37 43 30 21 19 22 21 32 31 30 30 51 67 68 63 65 64 66
89 74 87 91 61 29 26 32 42 64 62 47 27 16 13 19 22 18 16 18 21 22 32 36 41 44 38 36 29 25 21 23 22 18 33 35 28 28 55 58 59 60 51 52 59
93 77 81 94 68 30 30 35 50 55 60 41 40 45 34 40 39 20 19 18 21 37 44 38 38 33 35 27 27 25 27 31 22 22 23 30 28 27 44 52 52 49 49 43 55
88 86 84 87 74 30 35 48 60 46 63 48 37 28 28 29 36 22 21 17 32 43 44 41 31 30 34 27 32 30 31 30 30 27 19 19 19 23 24 35 45 45 43 39 41
86 99 88 81 69 31 64 72 39 50 84 60 51 33 29 22 18 20 19 19 25 40 40 33 26 30 35 33 29 36 28 29 26 32 31 23 26 30 24 28 36 37 38 38 34
86 96 98 89 46 50 71 70 60 66 58 30 35 25 21 16 20 18 17 19 18 35 38 38 37 36 35 31 25 36 30 29 27 34 38 35 37 32 25 27 38 35 32 32 32
92 98 99 94 68 41 69 66 62 83 73 40 30 25 20 16 18 18 16 17 16 24 28 31 32 29 30 30 29 30 26 45 51 50 50 38 39 36 32 24 23 31 33 33 32
87 100 100 88 74 33 60 68 92 86 40 34 27 21 25 26 25 23 20 20 23 31 33 29 32 33 31 33 29 28 40 58 62 74 60 39 43 39 30 25 26 29 30 28 31
84 98 99 93 74 65 66 88 88 60 54 29 23 24 29 27 26 23 24 25 22 26 43 41 40 35 34 31 34 36 38 59 48 79 60 44 46 36 31 25 23 21 22 28 33
79 95 100 84 74 80 88 93 79 64 35 30 22 31 31 26 23 25 28 29 23 24 31 52 46 38 37 36 34 33 42 37 64 67 83 51 27 30 31 29 33 32 30 32 31
84 98 96 80 90 75 96 75 66 48 41 36 32 30 36 29 30 28 28 24 23 23 22 37 53 50 42 30 28 32 29 45 56 48 48 39 35 48 36 33 37 42 38 43 44
89 98 78 93 99 88 88 76 58 42 44 49 43 34 31 31 28 31 27 20 21 20 30 42 49 49 50 46 37 34 32 31 40 55 55 66 42 28 38 37 43 44 35 45 53
96 86 72 92 92 86 83 63 53 49 46 49 48 49 34 33 32 31 29 22 22 33 37 40 59 64 42 34 37 42 44 42 64 37 57 73 46 26 34 35 38 36 38 40 40
85 75 81 87 92 90 69 60 59 51 49 47 47 42 27 30 30 31 28 31 33 33 39 42 54 67 53 39 40 42 38 33 50 59 54 68 52 24 21 25 28 33 35 39 38
74 90 100 100 75 61 69 72 73 50 48 48 51 47 46 31 28 32 39 38 37 34 28 30 46 52 61 41 33 34 32 28 39 69 53 56 38 30 27 26 20 23 26 37 43
92 71 76 94 86 69 57 63 70 66 43 44 49 48 52 38 31 38 47 42 39 31 33 38 41 36 34 31 31 29 29 29 32 39 47 40 43 32 29 23 24 18 21 28 46
82 75 70 77 68 74 60 60 60 52 45 41 54 52 49 42 34 36 49 45 39 38 34 40 42 35 39 39 34 33 29 30 31 28 32 31 32 37 29 25 26 23 25 28 30
84 76 63 63 73 80 73 56 52 43 40 33 42 47 53 43 27 24 27 31 38 43 48 49 58 66 55 46 41 59 39 33 29 29 30 36 34 31 41 36 35 34 32 34 35
Wind_Speed
13 13 14 15 16 16 16 18 19 20 22 24 24 24 23 23 19 15 12 7 4 5 7 6 6 5 4 4 9 8 2 3 3 2 2 5 3 7 8 7 6 7 12 20 25
13 13 13 14 15 15 16 17 19 20 21 23 23 23 22 21 18 4 5 4 3 7 6 5 6 5 5 4 2 4 3 5 7 3 5 11 6 4 2 7 2 21 27 29 29
14 14 14 14 15 15 16 17 18 19 21 22 22 21 19 17 10 3 7 3 3 4 4 7 6 8 7 12 10 4 4 6 8 12 7 12 5 5 11 2 5 23 33 29 26
14 14 14 14 15 15 16 16 17 18 20 21 20 19 16 12 2 1 5 6 3 3 4 5 3 2 3 5 3 3 12 14 10 13 9 8 9 9 7 9 20 28 27 25 26
16 15 15 15 14 14 15 15 17 17 19 19 18 17 14 9 8 5 4 4 1 1 4 7 5 4 3 5 8 4 7 8 10 21 12 12 3 6 7 17 27 26 25 21 27
18 16 15 15 14 14 14 15 16 17 17 18 16 15 12 6 1 6 3 4 2 2 6 9 5 7 12 4 3 14 16 9 18 21 13 9 3 4 9 23 29 27 28 23 31
20 18 16 16 15 14 14 15 16 16 16 16 15 14 16 18 3 5 6 4 3 2 2 4 9 10 9 7 11 12 2 5 10 17 7 21 1 1 13 23 26 21 23 28 34
22 20 16 16 15 14 14 15 15 16 15 14 13 14 12 4 11 13 11 9 9 11 5 7 12 12 4 10 10 6 4 2 5 9 10 4 4 5 12 16 20 18 20 30 32
25 20 16 16 15 15 14 15 16 16 15 12 10 9 13 7 13 15 14 12 10 15 13 10 7 7 7 3 5 5 2 4 1 6 5 5 3 6 16 17 18 20 24 26 34
25 23 17 16 15 15 14 15 15 15 13 11 11 9 8 0 10 10 21 17 11 5 9 1 3 3 5 4 3 4 1 3 2 3 4 6 5 6 25 26 27 27 26 31 34
26 23 18 15 14 14 13 11 8 3 6 10 5 15 17 10 6 11 13 13 13 6 3 2 4 3 7 7 7 9 1 4 6 6 5 11 6 6 23 22 23 31 27 31 39
26 25 19 15 14 13 12 9 1 3 12 20 22 27 28 22 10 8 8 11 8 4 2 4 3 5 7 4 3 3 2 9 9 8 9 6 9 6 17 22 30 30 31 39 35
25 22 18 15 13 11 10 10 11 14 6 17 22 20 24 12 11 15 5 15 5 5 5 5 6 4 1 5 7 4 3 5 6 4 4 5 3 4 5 12 24 31 41 41 44
23 20 20 15 12 9 1 10 1 8 2 7 6 8 14 11 6 20 17 6 4 8 7 4 2 2 5 2 2 7 7 7 1 4 1 3 3 3 7 8 12 25 29 38 41
23 22 20 16 9 12 4 4 7 3 3 4 6 4 14 13 1 10 19 11 5 7 6 9 3 3 4 6 4 9 4 6 1 3 3 1 2 7 4 7 9 22 32 42 45
25 22 21 21 21 11 5 3 9 3 7 3 9 8 7 11 3 4 10 15 5 6 0 5 4 4 4 1 3 8 2 7 7 4 1 5 5 6 5 11 12 20 28 29 35
26 24 27 22 19 13 7 9 3 5 5 5 6 7 6 7 4 5 3 5 6 4 1 2 3 2 1 8 8 2 4 3 3 3 6 2 3 8 6 7 8 15 22 26 37
26 27 27 28 16 14 11 2 9 7 7 4 6 9 9 7 7 6 5 5 3 5 3 4 1 1 2 3 4 4 4 5 4 3 4 5 4 6 7 5 5 15 17 18 15
25 30 27 32 22 14 8 9 8 6 5 4 4 6 5 8 5 6 8 9 9 7 7 4 3 3 4 4 3 1 2 5 5 2 3 4 4 6 5 4 7 5 12 13 18
27 27 31 33 26 17 6 15 6 9 6 4 6 7 10 10 7 7 6 6 5 10 9 7 2 1 4 3 2 6 4 2 3 2 3 3 3 4 3 3 1 3 8 13 22
26 13 24 34 24 12 12 12 12 31 9 4 2 2 8 8 9 7 6 5 9 6 10 5 5 4 4 7 8 3 3 2 4 4 4 1 5 6 7 8 10 10 16 21 24
25 7 26 40 11 8 14 13 19 22 15 5 5 7 6 9 9 9 11 9 7 12 10 7 5 4 8 3 6 6 5 4 5 4 1 4 5 4 9 9 14 19 22 25 25
20 14 30 41 11 12 9 22 22 10 5 6 5 4 4 6 5 7 8 4 2 8 10 7 1 2 6 6 4 3 6 6 4 4 6 5 5 2 3 5 16 21 26 30 31
17 8 13 32 28 19 16 13 19 26 19 15 7 7 4 3 5 7 5 1 2 4 15 13 5 7 7 7 3 3 6 5 6 3 4 6 6 6 9 8 12 19 21 31 34
16 10 17 13 22 16 17 13 16 15 19 10 8 16 8 5 4 5 2 4 2 7 2 5 6 5 5 4 3 1 1 2 3 4 5 7 7 8 4 5 5 15 3 5 28
13 9 24 5 27 23 16 24 26 23 8 16 11 9 5 9 7 7 7 4 6 2 4 2 3 3 3 2 3 3 2 3 4 3 4 4 2 6 8 15 18 12 16 14 9
34 20 24 18 19 18 28 21 23 23 15 29 14 13 9 10 13 13 20 17 12 9 6 6 6 3 4 3 3 5 6 6 3 2 5 5 5 4 8 11 11 17 17 15 14
Wind_Direction
296 295 289 287 290 297 303 307 312 319 323 325 326 325 323 319 320 317 314 310 282 219 239 253 267 283 261 253 252 250 224 272 265 271 234 179 293 214 286 116 58 163 146 152 145
300 300 297 289 289 294 299 305 313 318 323 324 326 323 323 323 330 40 31 344 251 241 240 259 234 293 277 249 233 152 131 251 207 184 208 167 234 118 18 65 55 80 120 137 137
297 302 299 294 289 292 297 305 313 318 322 324 323 322 324 325 330 48 27 339 265 230 232 250 256 285 271 260 236 251 184 223 267 248 200 150 194 110 126 134 183 139 135 146 144
290 297 300 299 291 292 299 305 310 317 320 322 321 321 322 317 242 188 356 353 293 258 242 238 241 222 263 301 297 280 266 256 248 170 168 159 159 152 178 158 148 139 140 140 149
282 290 296 297 291 292 298 303 308 315 318 319 317 317 320 297 262 217 334 353 341 231 224 203 273 298 263 279 321 208 278 264 183 129 118 138 185 113 124 137 147 141 137 139 166
273 283 291 296 295 290 294 300 306 312 315 314 313 311 305 278 93 213 285 333 290 218 216 221 252 311 301 276 281 314 308 197 115 125 134 121 284 166 181 143 150 148 141 158 177
262 275 284 290 293 290 291 296 303 307 312 309 308 304 287 260 166 235 229 235 249 62 271 288 310 290 291 330 317 304 10 62 123 136 153 136 349 2 146 159 162 172 159 163 179
249 261 274 285 292 289 288 293 300 303 306 301 301 298 266 264 222 216 209 233 245 256 291 322 319 307 290 315 335 339 64 106 217 155 182 191 241 230 162 169 176 197 170 167 177
249 251 268 280 288 288 287 293 298 299 295 292 289 280 268 219 228 205 205 225 239 260 258 301 313 312 318 43 352 347 193 166 310 185 181 174 207 202 161 178 182 179 173 180 183
244 252 260 275 286 288 288 295 298 294 276 272 252 290 254 203 331 228 211 235 258 198 205 229 353 25 9 72 252 292 297 10 220 242 188 185 252 144 165 173 178 181 185 183 188
240 244 248 267 282 288 290 310 302 283 255 239 238 257 273 288 319 217 197 222 232 154 153 125 74 291 268 241 233 273 339 325 289 224 158 212 213 195 173 185 174 183 175 167 184
234 239 237 260 275 285 290 293 284 3 297 275 263 258 258 274 303 230 211 203 162 157 31 9 195 229 288 286 74 284 298 280 277 293 184 203 237 198 176 187 181 183 177 177 173
230 231 228 247 270 279 281 309 288 265 283 286 247 236 238 236 225 245 228 206 121 130 177 164 241 233 182 320 11 290 226 254 239 311 55 106 350 193 212 192 190 189 188 187 184
219 220 224 231 256 244 226 19 168 152 2 276 207 237 204 202 259 240 233 221 147 176 168 224 274 7 70 311 202 257 223 239 233 62 107 76 272 274 213 192 189 196 198 195 194
212 211 215 214 213 199 134 53 143 101 346 235 171 198 183 176 234 211 220 211 196 176 130 241 129 148 214 232 216 240 349 244 353 65 69 328 83 266 185 201 197 205 204 200 201
206 206 209 212 221 195 200 148 146 72 246 277 157 175 136 199 253 4 185 213 271 138 196 200 178 169 221 273 176 285 271 29 23 43 24 246 146 281 214 204 209 204 204 198 196
203 202 210 213 222 217 226 151 110 205 303 202 176 154 159 180 238 199 196 178 164 107 218 100 190 247 30 350 334 112 60 12 4 10 223 305 147 240 247 234 197 188 181 196 208
200 201 208 217 198 196 197 102 215 217 247 316 156 150 176 169 224 204 148 209 262 107 120 181 193 120 82 100 311 322 161 150 211 209 268 269 201 260 289 223 263 238 212 180 182
198 201 215 212 197 196 180 204 196 228 208 229 104 145 226 208 190 185 183 198 195 162 150 142 262 305 195 145 183 310 227 172 103 12 45 259 325 333 340 12 346 254 213 188 202
196 198 212 203 197 198 202 220 225 232 2 336 183 175 184 209 170 161 200 202 207 190 158 203 122 282 281 296 256 175 171 57 41 194 254 295 283 236 203 217 60 184 197 168 186
187 199 206 209 189 192 209 215 217 261 287 308 323 236 204 183 190 182 217 255 196 201 137 138 116 270 338 199 220 358 236 141 126 142 176 185 271 229 213 188 199 207 194 176 173
179 199 192 196 167 216 221 200 235 261 264 292 273 229 218 193 184 195 197 197 194 145 153 198 135 174 212 259 164 157 241 227 129 231 117 149 265 258 213 213 200 200 198 193 199
183 180 181 191 195 212 222 214 230 243 212 213 270 196 216 200 180 182 204 190 309 158 155 183 138 78 347 335 80 187 232 205 108 78 190 140 260 288 298 270 223 209 214 209 212
177 175 176 200 217 197 196 204 214 246 256 263 284 312 275 252 215 197 140 49 104 148 169 138 144 155 182 209 167 214 235 177 132 117 188 212 240 269 267 238 239 224 222 220 217
201 199 184 196 206 209 193 190 195 224 213 215 246 232 242 268 169 168 103 128 39 138 117 129 163 145 186 198 180 149 28 322 144 187 152 257 213 250 305 312 248 240 196 224 227
208 188 175 207 198 201 201 211 201 220 223 213 229 247 251 217 191 183 148 181 175 185 144 43 191 141 158 53 83 163 249 284 248 206 221 250 345 306 87 86 68 83 97 91 86
214 210 186 203 184 188 213 202 205 212 227 231 194 238 267 233 240 228 186 179 170 155 162 134 132 104 236 349 48 343 224 205 220 271 183 171 193 291 45 48 59 83 87 79 74